Weather in Galichny

Russia / Khabarovsk Krai     50°43′21″N   137°12′06″E
temp.,
°C
wind,
m/s
gust,
m/s
humid.,
%
clouds,
%
prec.,
mm/h
press.,
hPa
HPBL,
m
27 february, sat
sat2701:00−19sse2299100 0.1 103136
04:00−20se24100100 0.1 1031125
07:00−20sse3899100 0.1 1032314
10:00−19sse41093100 0.1 1030493
13:00−15s51088100 0.1 1028541
16:00−14s51187100 0.1 1025579
19:00−14s41292100 0.1 1024511
22:00−13sse41488100 0.4 1020586
28 february, sun
sun2801:00−12s51587100 0.4 1016743
04:00−12s51490100 0.9 1012606
07:00−12s31191100 0.0 1012459
10:00−11s248999 0.0 1012298
13:00−7s238186 0.0 1012410
16:00−6sw247891 0.0 1012759
19:00−10nw3107885 0.0 1016379
22:00−15nnw3137870 0.0 1019404
1 march, mon
mon101:00−18nw3137944 0.0 1021420
04:00−20nnw238044 0.0 102344
07:00−22nne008940 0.0 102420
10:00−19s249070 0.1 1025474
13:00−16ssw3382100 0.1 1024771
16:00−16sw3483100 0.2 1024782
19:00−20w128643 0.0 102620
22:00−21nw297227 0.0 1027250
2 march, tue
tue201:00−23nw128716 0.0 102820
04:00−25ese119041 0.0 102920
07:00−26ese119888 0.0 103019
10:00−22s239294 0.0 1030301
13:00−18s237697 0.0 1028637
16:00−17ssw237493 0.0 1028735
19:00−22s229253 0.0 102920
22:00−24s119526 0.0 103120
3 march, wed
wed301:00−25sse12960 0.0 103019
04:00−26se12994 0.0 102919
07:00−27se2210094 0.0 102827
10:00−23sse369497 0.0 1026362
13:00−18s51085100 0.0 1022611
16:00−16s61382100 0.0 1019587
19:00−17s41582100 0.0 1018568
22:00−16s51575100 0.0 1016628